Location: Newark
(36.6282°N, 40.8455°E)
Time: 13:53:36
(UTC+00:00)

Hubble Space Telescope - Visible Passes

Search period start: 23 July 2019 00:00
Search period end: 02 August 2019 00:00
Orbit: 536 x 540 km, 28.5° (Epoch: 22 July)

Date Brightness Start Highest point End Pass type
(mag) Time Alt. Az. Time Alt. Az. Time Alt. Az.
29 Jul 3.2 00:24:41 11° SSE 00:24:41 11° SSE 00:25:28 10° SE visible
30 Jul 3.1 00:14:39 12° SE 00:14:39 12° SE 00:15:31 10° SE visible
30 Jul 2.2 01:50:32 10° SW 01:53:56 25° S 01:57:20 10° ESE visible
31 Jul 3.2 00:04:38 12° SE 00:04:38 12° SE 00:05:18 10° SE visible
31 Jul 2.1 01:39:58 10° SW 01:43:19 26° S 01:46:46 10° ESE visible
31 Jul 3.4 23:54:38 11° SE 23:54:38 11° SE 23:54:57 10° ESE visible
01 Aug 2.0 01:29:58 14° SW 01:32:42 26° S 01:36:11 10° ESE visible
